Location: Boiro
(42.6475°N, 8.8834°W)
Time: 15:30:41
(UTC+02:00)

Explorer 7 - Pass Details

Date: 02 July 2022
Orbit: 482 x 668 km, 50.3° (Epoch: 15 August)

Event Time Altitude Azimuth Distance (km) Brightness Sun altitude
Rises 03:02:18 0° 279° (W) 3,003 10.6 -24.1°
Reaches altitude 10° 03:04:53 10° 289° (WNW) 2,080 9.9 -24.0°
Maximum altitude 03:09:14 33° 354° (N) 1,098 8.9 -23.9°
Drops below altitude 10° 03:13:26 10° 58° (ENE) 2,010 10.2 -23.8°
Sets 03:15:54 0° 69° (ENE) 2,887 10.9 -23.8°
